• In Hungary
  • List of Countries
  • For 7 days
  • Water Temperature
  • Satellite Maps
  • Weather Map
  • News
  • Weather Widgets
  • user-avatar
    Login

    Hourly Weather Tienen

    Today, 22 October, Sunday

    Time Temperature Precipitation Wind Pressure Humidity
    00:00 +9°C° 0 mm 8 mps 753 mmHg 72%
    01:00 +9°C° 0.4 mm 8 mps 753 mmHg 75%
    02:00 +8°C° 0.4 mm 9 mps 752 mmHg 77%
    03:00 +8°C° 0.4 mm 10 mps 752 mmHg 80%
    04:00 +8°C° 0.8 mm 9 mps 752 mmHg 82%
    05:00 +8°C° 0.8 mm 9 mps 752 mmHg 84%
    06:00 +9°C° 0.8 mm 8 mps 752 mmHg 87%
    07:00 +9°C° 0.4 mm 8 mps 753 mmHg 85%
    08:00 +10°C° 0.4 mm 7 mps 753 mmHg 83%
    09:00 +10°C° 0.4 mm 7 mps 754 mmHg 81%
    10:00 +10°C° 0.1 mm 7 mps 754 mmHg 76%
    11:00 +11°C° 0.1 mm 7 mps 754 mmHg 71%
    12:00 +11°C° 0.1 mm 7 mps 755 mmHg 66%
    13:00 +11°C° 0.1 mm 7 mps 755 mmHg 66%
    14:00 +11°C° 0.1 mm 6 mps 755 mmHg 66%
    15:00 +11°C° 0.1 mm 6 mps 755 mmHg 66%
    16:00 +10°C° 0.1 mm 6 mps 756 mmHg 69%
    17:00 +9°C° 0.1 mm 5 mps 756 mmHg 72%
    18:00 +9°C° 0.1 mm 5 mps 756 mmHg 75%
    19:00 +9°C° 0.2 mm 5 mps 757 mmHg 76%
    20:00 +9°C° 0.2 mm 5 mps 757 mmHg 76%
    21:00 +9°C° 0.2 mm 5 mps 757 mmHg 76%
    22:00 +8°C° 0 mm 5 mps 757 mmHg 77%
    23:00 +8°C° 0 mm 4 mps 758 mmHg 78%

    Tomorrow, 23 October, Monday

    Time Temperature Precipitation Wind Pressure Humidity
    00:00 +8°C° 0 mm 4 mps 758 mmHg 80%
    01:00 +8°C° 0 mm 4 mps 758 mmHg 81%
    02:00 +8°C° 0 mm 5 mps 759 mmHg 83%
    03:00 +8°C° 0 mm 5 mps 759 mmHg 85%
    04:00 +8°C° 0.1 mm 4 mps 759 mmHg 86%
    05:00 +8°C° 0.1 mm 4 mps 759 mmHg 88%
    06:00 +8°C° 0.1 mm 4 mps 759 mmHg 89%
    07:00 +9°C° 0 mm 5 mps 760 mmHg 86%
    08:00 +10°C° 0 mm 5 mps 760 mmHg 84%
    09:00 +10°C° 0 mm 5 mps 760 mmHg 81%
    10:00 +12°C° 0 mm 5 mps 760 mmHg 80%
    11:00 +13°C° 0 mm 5 mps 760 mmHg 80%
    12:00 +13°C° 0 mm 5 mps 760 mmHg 79%
    13:00 +13°C° 0.2 mm 4 mps 760 mmHg 82%
    14:00 +13°C° 0.2 mm 4 mps 760 mmHg 84%
    15:00 +13°C° 0.2 mm 4 mps 760 mmHg 87%
    16:00 +12°C° 0.3 mm 4 mps 761 mmHg 89%
    17:00 +12°C° 0.3 mm 4 mps 761 mmHg 91%
    18:00 +12°C° 0.3 mm 4 mps 761 mmHg 93%
    19:00 +12°C° 0.2 mm 4 mps 761 mmHg 93%
    20:00 +12°C° 0.2 mm 4 mps 761 mmHg 93%
    21:00 +12°C° 0.2 mm 4 mps 761 mmHg 93%
    22:00 +12°C° 0.1 mm 4 mps 761 mmHg 94%
    23:00 +12°C° 0.1 mm 4 mps 761 mmHg 94%

    Day after tomorrow, 24 October, Tuesday

    Time Temperature Precipitation Wind Pressure Humidity
    00:00 +12°C° 0.1 mm 4 mps 761 mmHg 94%
    01:00 +12°C° 0.1 mm 4 mps 761 mmHg 94%
    02:00 +13°C° 0.1 mm 4 mps 761 mmHg 94%
    03:00 +13°C° 0.1 mm 4 mps 761 mmHg 94%
    04:00 +13°C° 0.5 mm 4 mps 761 mmHg 94%
    05:00 +13°C° 0.5 mm 4 mps 761 mmHg 95%
    06:00 +13°C° 0.5 mm 4 mps 761 mmHg 95%
    07:00 +14°C° 0.4 mm 4 mps 761 mmHg 94%
    08:00 +14°C° 0.4 mm 4 mps 761 mmHg 94%
    09:00 +14°C° 0.4 mm 5 mps 761 mmHg 94%
    10:00 +14°C° 0.4 mm 5 mps 762 mmHg 93%
    11:00 +15°C° 0.4 mm 5 mps 762 mmHg 93%
    12:00 +15°C° 0.4 mm 5 mps 762 mmHg 92%
    13:00 +15°C° 0.1 mm 4 mps 762 mmHg 92%
    14:00 +15°C° 0.1 mm 4 mps 762 mmHg 92%
    15:00 +17°C° 0.1 mm 4 mps 762 mmHg 92%
    16:00 +15°C° 0 mm 4 mps 762 mmHg 92%
    17:00 +15°C° 0 mm 4 mps 762 mmHg 93%
    18:00 +15°C° 0 mm 4 mps 762 mmHg 93%
    19:00 +14°C° 0 mm 4 mps 762 mmHg 93%
    20:00 +14°C° 0 mm 4 mps 763 mmHg 93%
    21:00 +14°C° 0 mm 4 mps 763 mmHg 94%
    22:00 +13°C° 0 mm 3 mps 762 mmHg 94%
    23:00 +13°C° 0 mm 3 mps 762 mmHg 95%

    25 October, Wednesday

    Time Temperature Precipitation Wind Pressure Humidity
    00:00 +13°C° 0 mm 3 mps 762 mmHg 95%
    01:00 +13°C° 0 mm 4 mps 762 mmHg 95%
    02:00 +13°C° 0 mm 4 mps 762 mmHg 95%
    03:00 +13°C° 0 mm 4 mps 761 mmHg 95%
    04:00 +13°C° 0 mm 4 mps 761 mmHg 95%
    05:00 +13°C° 0 mm 4 mps 761 mmHg 95%
    06:00 +13°C° 0 mm 4 mps 761 mmHg 95%
    07:00 +14°C° 0 mm 5 mps 761 mmHg 91%
    08:00 +15°C° 0 mm 5 mps 762 mmHg 88%
    09:00 +15°C° 0 mm 5 mps 762 mmHg 85%
    10:00 +16°C° 0 mm 5 mps 762 mmHg 80%
    11:00 +17°C° 0 mm 5 mps 762 mmHg 76%
    12:00 +19°C° 0 mm 5 mps 762 mmHg 71%
    13:00 +19°C° 0 mm 5 mps 762 mmHg 72%
    14:00 +19°C° 0 mm 4 mps 762 mmHg 73%
    15:00 +19°C° 0 mm 3 mps 762 mmHg 74%
    16:00 +17°C° 0 mm 3 mps 763 mmHg 79%
    17:00 +16°C° 0 mm 2 mps 763 mmHg 84%
    18:00 +15°C° 0 mm 2 mps 763 mmHg 89%
    19:00 +15°C° 0 mm 2 mps 764 mmHg 89%
    20:00 +15°C° 0 mm 1 mps 764 mmHg 89%
    21:00 +14°C° 0 mm 1 mps 765 mmHg 90%
    22:00 +14°C° 0 mm 1 mps 765 mmHg 90%
    23:00 +14°C° 0 mm 1 mps 765 mmHg 91%

    26 October, Thursday

    Time Temperature Precipitation Wind Pressure Humidity
    00:00 +14°C° 0 mm 1 mps 765 mmHg 92%
    01:00 +14°C° 0 mm 1 mps 765 mmHg 92%
    02:00 +14°C° 0 mm 2 mps 765 mmHg 92%
    03:00 +14°C° 0 mm 2 mps 765 mmHg 92%
    04:00 +14°C° 0 mm 2 mps 765 mmHg 92%
    05:00 +14°C° 0 mm 2 mps 765 mmHg 91%
    06:00 +13°C° 0 mm 2 mps 765 mmHg 91%
    07:00 +14°C° 0 mm 2 mps 765 mmHg 89%
    08:00 +15°C° 0 mm 2 mps 765 mmHg 86%
    09:00 +15°C° 0 mm 2 mps 765 mmHg 84%
    10:00 +16°C° 0 mm 2 mps 765 mmHg 82%
    11:00 +17°C° 0 mm 2 mps 765 mmHg 80%
    12:00 +18°C° 0 mm 2 mps 765 mmHg 79%
    13:00 +19°C° 0 mm 1 mps 764 mmHg 79%
    14:00 +19°C° 0 mm 1 mps 764 mmHg 79%
    15:00 +19°C° 0 mm 1 mps 764 mmHg 79%
    16:00 +18°C° 0 mm 1 mps 764 mmHg 82%
    17:00 +16°C° 0 mm 1 mps 764 mmHg 86%
    18:00 +15°C° 0 mm 1 mps 764 mmHg 89%
    19:00 +14°C° 0 mm 1 mps 763 mmHg 90%
    20:00 +14°C° 0 mm 2 mps 763 mmHg 90%
    21:00 +13°C° 0 mm 2 mps 763 mmHg 91%
    22:00 +13°C° 0 mm 2 mps 763 mmHg 91%
    23:00 +13°C° 0 mm 2 mps 762 mmHg 90%

    27 October, Friday

    Time Temperature Precipitation Wind Pressure Humidity
    00:00 +11°C° 0 mm 3 mps 762 mmHg 90%
    01:00 +11°C° 0 mm 3 mps 761 mmHg 91%
    02:00 +11°C° 0 mm 3 mps 761 mmHg 91%
    03:00 +11°C° 0 mm 3 mps 760 mmHg 91%
    04:00 +11°C° 0 mm 3 mps 760 mmHg 92%
    05:00 +12°C° 0 mm 4 mps 759 mmHg 92%
    06:00 +12°C° 0 mm 4 mps 759 mmHg 92%
    07:00 +13°C° 0 mm 4 mps 758 mmHg 90%
    08:00 +14°C° 0 mm 5 mps 758 mmHg 87%
    09:00 +14°C° 0 mm 6 mps 758 mmHg 85%
    10:00 +15°C° 0.1 mm 6 mps 758 mmHg 85%
    11:00 +15°C° 0.1 mm 6 mps 758 mmHg 85%
    12:00 +15°C° 0.1 mm 6 mps 758 mmHg 85%
    13:00 +14°C° 0.1 mm 6 mps 758 mmHg 84%
    14:00 +14°C° 0.1 mm 6 mps 758 mmHg 84%
    15:00 +14°C° 0.1 mm 6 mps 758 mmHg 83%
    16:00 +13°C° 0.1 mm 5 mps 759 mmHg 85%
    17:00 +12°C° 0.1 mm 4 mps 759 mmHg 87%
    18:00 +11°C° 0.1 mm 3 mps 760 mmHg 89%
    19:00 +10°C° 0 mm 3 mps 760 mmHg 90%
    20:00 +10°C° 0 mm 2 mps 760 mmHg 91%
    21:00 +9°C° 0 mm 2 mps 761 mmHg 92%
    22:00 +9°C° 0 mm 2 mps 760 mmHg 93%
    23:00 +9°C° 0 mm 2 mps 760 mmHg 93%
    Show more